Location: Bannatyne
(13.0833°N, 59.5333°W)
Time: 20:58:50
(UTC+00:00)

Explorer 7 - Pass Details

Date: 01 February 2020
Orbit: 485 x 679 km, 50.3° (Epoch: 26 February)

Event Time Altitude Azimuth Distance (km) Brightness Sun altitude
Rises 07:22:39 0° 338° (NNW) 2,592 - -43.8°
Reaches altitude 10° 07:25:03 10° 351° (N) 1,733 - -43.3°
Maximum altitude 07:28:24 26° 50° (NE) 1,057 - -42.5°
Drops below altitude 10° 07:31:54 10° 108° (ESE) 1,824 - -41.6°
Exits shadow 07:33:00 - 115° (ESE) 2,213 10.6 -41.4°
Sets 07:34:29 0° 121° (ESE) 2,758 11.2 -41.0°
